Texas Shootout - LOFT CHECK

Station: LOFT CHECK - T Race

Distance: 1 Miles    

Release: 04-Dec-2017 08:00

Weather Release:    Arrival:

Wind at Release:     Wind at Arrival:

Temp at Release: °    Temp at Arrival: °

Lofts: 163

Birds: 743

Clocked: 744

HAND INVENTORY
Drops Pos Breeder Pigeon Name Color Sex Ent Arrival Speed To Win Eligible
1 Wessel Family Lofts - CA 1463-AU17-ARC BC H 1 08:14:47.16 119.032 00:00:00 Yes
2 The Firm - TX 1188-IF17-KOLV Dark Queen Of Dallas DC H 1 08:17:31.93 100.387 00:02:45 Yes
3 Frank Martinez - CA 0739-AU17-POCO DC H 1 08:17:41.36 99.495 00:02:54 Yes
4 Little Reata Loft - TX 17336-AU17-JETT BC C 1 08:17:51.13 98.587 00:03:04 Yes
5 Franco Loft - TX 0776-AU17-DEN SIL C 1 08:17:52.52 98.460 00:03:05 Yes
6 Crowder Loft - TX 0767-AU17-GCI BC C 1 08:18:06.54 97.189 00:03:19 Yes
7 Charlie Barbiere - NJ 1948-IF17-BSC BB H 1 08:19:47.70 88.911 00:05:01 Yes
8 Little Reata Loft - TX 17329-AU17-JETT BB H 2 08:19:49.35 88.788 00:05:02 Yes
9 The Firm - TX 0342-AU17-WWC Yipikaye BC H 2 08:19:59.39 88.045 00:05:12 Yes
10 Armando & Rameriz Loft - TX 0151-AU17-DAL BB H 1 08:20:01.28 87.906 00:05:14 Yes
11 Liqingni Loft - NY 0258-AU17-YANG BB H 1 08:20:07.32 87.466 00:05:20 Yes
12 A D L Loft - IL 0169-AU17-ADL BBWF H 1 08:20:19.16 86.617 00:05:32 Yes
13 West Wing Syndicate - TX 28707-AU17-AA BC C 1 08:20:20.05 86.554 00:05:33 Yes
14 Lee Family Loft - MS 2929-AU17-LEE MLY C 1 08:20:31.54 85.746 00:05:44 Yes
15 K & J Loft - OK 1781-AU17-VK BBWF H 1 08:20:32.33 85.691 00:05:45 Yes
16 Kim Wong - VT 10892-AU17-ARPU BB C 1 08:20:39.96 85.164 00:05:53 Yes
17 Elton Dinga - TX 12133-AU17-AA Klaas 730 x 222 BB H 1 08:20:54.49 84.178 00:06:07 Yes
18 Holleys Silver Star - TX 0942-AU17-DEN SIL H 1 08:20:55.65 84.100 00:06:08 Yes
19 Black Magic Loft - TX 0330-AU17-HCF BB C 1 08:21:08.20 83.268 00:06:21 Yes
20 English Syndicate - UK 2925-AU17-TEX BB H 1 08:21:09.13 83.207 00:06:22 Yes
21 Apollo Loft 2 - IL 2982-AU17-APLO BCWF H 1 08:21:23.32 82.287 00:06:36 Yes
22 Racing Pigeon Mall - WA 0711-AU17-RPM BB C 1 08:21:24.64 82.202 00:06:37 Yes
23 Hillbilly Loft - TX 17691-AU17-AA BB C 1 08:21:39.58 81.257 00:06:52 Yes
24 Ecker/Murphy Syndicate - PA 2356-IF17-CVR RC C 1 08:21:40.87 81.176 00:06:54 Yes
25 Jokers Wild - CA 0345-AU17-JOKE BBWF C 1 08:21:55.16 80.294 00:07:08 Yes
26 Cbs & Steve - OK 1428-AU17-CBS BC C 1 08:21:56.58 80.208 00:07:09 Yes
27 Dream Team - VT 0381-AU17-JCZL 2930x3658 BC H 1 08:22:08.11 79.511 00:07:21 Yes
28 Tex-Mex Loft - TX 0658-AU17-NSL F G G E DGRZ C 1 08:22:09.16 79.449 00:07:22 Yes
29 Russell Hall - TX 7023-AU17-HALL BBSP H 1 08:22:18.78 78.878 00:07:32 Yes
30 Liqingni Loft - NY 0288-AU17-YANG BB C 2 08:22:32.27 78.091 00:07:45 Yes
31 Bill Wisdom - TX 0345-AU17-DEN BB H 1 08:22:36.02 77.875 00:07:49 Yes
32 Tou Loft - TN 0052-AU17-TOU BWFP H 1 08:22:45.74 77.321 00:07:59 Yes
33 Zheng Loft - FL 0117-AU17-LIN BB H 1 08:22:47.18 77.239 00:08:00 Yes
34 Chen Loft - PA 1705-AU17-CHEN BB C 1 08:22:55.55 76.769 00:08:08 Yes
35 Elton Dinga - TX 12105-AU17-AA Klaas 405 x 1132 BB H 2 08:23:09.90 75.977 00:08:23 Yes
36 Highland Loft - NY 0742-AU17-LFO BB C 1 08:23:11.19 75.906 00:08:24 Yes
37 Buck`S - TX 2048-AU17-KBUC BC H 1 08:23:24.68 75.177 00:08:38 Yes
38 Quest Syndicate/Any Given Day Loft - TX 16638-AU17-QS BB H 1 08:23:26.63 75.073 00:08:39 Yes
39 Bill Kluge - TX 1772-AU17-COLD BB H 1 08:23:45.84 74.062 00:08:59 Yes
40 Lee Family Loft - MS 2930-AU17-LEE SIL C 2 08:23:46.84 74.010 00:09:00 Yes
41 Duane Gragg - CA 0933-AU17-AUB BB C 1 08:23:58.25 73.423 00:09:11 Yes
42 Chen Loft - PA 1085-AU17-TFC BC C 2 08:23:59.32 73.368 00:09:12 Yes
43 Baldwin / Tilson - NC 7220-AU17-TNTL BBWF H 1 08:24:11.64 72.745 00:09:24 Yes
44 Flying D Loft - TX 0304-AU17-FLYD BB H 1 08:24:13.15 72.670 00:09:26 Yes
45 Racine - WI 0595-AU17-RAC BLK H 1 08:24:24.26 72.118 00:09:37 Yes
46 Champ Camp - IN 0191-AU17-CHMP BB H 1 08:24:25.45 72.060 00:09:38 Yes
47 Nemelka Racing Pigeon Loft - UT 7140-AU17-NRPL Florian x New Gaga BB C 1 08:24:35.42 71.573 00:09:48 Yes
48 Larry Payne - KS 0275-AU17-LPL BB H 1 08:24:36.70 71.511 00:09:50 Yes
49 Chen Loft - PA 0127-AU17-TFC BC H 3 08:24:50.64 70.842 00:10:03 Yes
50 Wind Chaser - MI 1693-AU17-GRM BC C 1 08:24:51.92 70.781 00:10:05 Yes
51 Barry Venn - WY 1939-AU17-VENN BCPD H 1 08:25:05.60 70.138 00:10:18 Yes
52 Aok Loft - NE 0970-AU17-OMHA BB C 1 08:25:07.11 70.068 00:10:20 Yes
53 Kwan Loft - CA 0795-AU17-KWAN BWFP H 1 08:25:17.55 69.586 00:10:30 Yes
54 Big Andy - FL 0149-AU17-RGL CHOC H 1 08:25:20.29 69.460 00:10:33 Yes
55 Baptista - IL 0021-AU17-BAPT BBWF C 1 08:25:31.61 68.947 00:10:44 Yes
56 Gossett & Son - TX 1016-AU17-WF BB H 1 08:25:34.49 68.818 00:10:47 Yes
57 C B S & Big Mike - OK 1058-AU17-CBS BB H 1 08:25:42.43 68.463 00:10:55 Yes
58 Tony Alvarado - TX 0066-AU17-WETT BWFP H 1 08:25:52.84 68.004 00:11:06 Yes
59 Espo Loft - SC 0973-AU17-ESPO BB C 1 08:26:05.34 67.461 00:11:18 Yes
60 Rossi Loft Llc - WI 2094-AU17-KEN BB H 1 08:26:06.51 67.411 00:11:19 Yes
61 A D L Loft - IL 0175-AU17-ADL BB C 2 08:26:12.07 67.173 00:11:25 Yes
62 Ecker/Murphy Syndicate - PA 1499-AU17-GSV DCWF H 2 08:26:22.59 66.726 00:11:35 Yes
63 Hugo Family Loft - IL 93088-IF17-E BB C 1 08:26:23.53 66.686 00:11:36 Yes
64 Skylinerpl.Com - UT 0951-AU17-UVI "Pouw Girl" BC H 1 08:26:36.76 66.134 00:11:50 Yes
65 Kwan Loft - CA 6228-AU17-HIPT BB H 2 08:26:37.79 66.091 00:11:51 Yes
66 Dream Team - VT 0818-AU17-JCZL BC H 2 08:26:43.86 65.841 00:11:57 Yes
67 Lechuga Loft - TX 0008-MX17-LECH BB C 1 08:26:49.17 65.624 00:12:02 Yes
68 English Syndicate - UK 12529-GB17-D BB H 2 08:27:00.30 65.173 00:12:13 Yes
69 Vick Corso - LA 1291-AU17-CRSO BC H 1 08:27:01.58 65.122 00:12:14 Yes
70 New Orleans Boys - LA 0748-AU17-MET BC H 1 08:27:15.67 64.561 00:12:29 Yes
71 Cajun Express Loft - LA 10962-AU17-AA BCPD H 1 08:27:27.22 64.108 00:12:40 Yes
72 777 Victory Loft - NY 0147-AU17-NYLN BBPD H 1 08:27:28.78 64.047 00:12:42 Yes
73 Tex-Mex Loft - TX 0612-AU17-NSL $700 BBWF C 2 08:27:40.86 63.582 00:12:54 Yes
74 777 Victory Loft - NY 0132-AU17-NYLN BWFP H 2 08:27:42.05 63.536 00:12:55 Yes
75 Carroll Hoover - PA 1131-IF17-RLPC MSPL C 1 08:27:55.63 63.021 00:13:08 Yes
76 Lazy P Loft - TX 34103-AU17-AA BB C 1 08:27:56.77 62.978 00:13:10 Yes
77 Bynum Family Lofts - TX 0201-AU17-BFL BB H 1 08:28:19.82 62.124 00:13:33 Yes
78 Zhenyuan Guo - SC 0686-AU17-GUO BC H 1 08:28:20.98 62.082 00:13:34 Yes
79 L & L Loft - AL 0051-AU17-LL BB H 1 08:28:38.06 61.465 00:13:51 Yes
80 West Wing Syndicate - TX 1164-AU17-WWC BKSP H 2 08:28:39.21 61.424 00:13:52 Yes
81 Dream Union - DC 1122-IF17-SLP BB H 1 08:28:53.70 60.910 00:14:07 Yes
82 Neighbor Hood Bullies - TX 0754-AU17-WF BB C 1 08:28:56.20 60.822 00:14:09 Yes
83 Black Magic Loft - TX 0404-AU17-BLKM BC H 2 08:29:12.84 60.245 00:14:26 Yes
84 Da Dong - WI 0815-AU17-DONG BB C 1 08:29:22.56 59.913 00:14:35 Yes
85 Crowder Loft - TX 0738-AU17-GCI BB H 2 08:29:23.79 59.871 00:14:37 Yes
86 Neighbor Hood Bullies - TX 0766-AU17-WF BB H 2 08:29:36.20 59.453 00:14:49 Yes
87 Bynum Family Lofts - TX 0231-AU17-BFL BBSP C 2 08:29:37.41 59.412 00:14:50 Yes
88 Racine - WI 0594-AU17-RAC BB C 2 08:30:03.36 58.557 00:15:16 Yes
89 Zhenyuan Guo - SC 0688-AU17-GUO BC H 2 08:30:04.61 58.517 00:15:17 Yes
90 Wind Chaser - MI 1666-AU17-GRM BC C 2 08:30:17.52 58.101 00:15:30 Yes
91 A D L Loft - IL 0167-AU17-ADL BB H 3 08:30:18.30 58.076 00:15:31 Yes
92 Tex-Mex Loft - TX 0624-AU17-NSL Jamie BC H 3 08:30:30.35 57.694 00:15:43 Yes
93 Relax & Barger - CA 0708-AU17-OBC BC C 1 08:30:32.41 57.629 00:15:45 Yes
94 Elton Dinga - TX 12110-AU17-AA Gust Jansen BC H 3 08:30:44.51 57.251 00:15:57 Yes
95 Neighbor Hood Bullies - TX 1000-AU17-ARPU DWFP H 3 08:30:45.40 57.223 00:15:58 Yes
96 Hutchins Loft - TX 16087-AU17-QS BB H 1 08:31:03.90 56.655 00:16:17 Yes
97 R P S Loft - CA 1453-AU17-FOYS BBWF C 1 08:31:05.21 56.616 00:16:18 Yes
98 Elton Dinga - TX 12135-AU17-AA Klaas x Kruger BB C 4 08:31:20.78 56.147 00:16:34 Yes
99 Robin & Brenda - TX 0336-AU17-WWC Opieus BC C 1 08:31:21.98 56.111 00:16:35 Yes
100 Los Banditos - CA 2475-AU17-LB BNC H 1 08:31:38.07 55.635 00:16:51 Yes

There are 989 bird records

Note: These Race Results are unofficial and subject to change until verified by the Race Committee and declared final.